[[{"header":{"parameterUnit":"m.s-1","parameterCategory":1,"la1":30.2991,"la2":30.254,"lo1":-89.0895,"lo2":-89.0444,"dy":0.0017,"dx":0.0017,"nx":28,"ny":28,"refTime":"2024-04-18T21:00:00:Z","depth":0,"parameterNumber":2,"parameterNumberName":"U-component_of_WINDS"},"data":[0,0,0,0,0,0,0,0,0,0,0,0,0,0,0,0,0,0,0,0,0,0,0,0,0,0,0,0,0,0,0,0,0,0,0,0,0,0,0,0,0,0,0,0,0,0,0,0,0,0,0,0,0,0,0,0,0,0,-1.2871,-1.2872,0,-1.293,-1.293,-1.2931,-1.2927,-1.2926,-1.2925,-1.2924,-1.2985,-1.2987,-1.299,0,0,0,0,0,0,0,0,0,0,0,0,0,-1.2759,-1.2761,-1.2871,-1.2872,-1.2873,-1.293,-1.293,-1.2931,-1.2927,-1.2926,-1.2925,-1.2924,-1.2984,-1.2987,-1.299,0,0,0,0,0,0,0,0,0,0,0,0,0,-1.2812,-1.2762,-1.2871,-1.2877,-1.2879,-1.2929,-1.293,-1.2931,-1.2927,-1.2926,-1.2924,-1.2923,-1.2983,-1.2987,-1.299,-1.3039,0,0,-1.3001,-1.3003,0,0,0,0,0,0,0,0,-1.2809,-1.2816,-1.2876,-1.2877,-1.2878,-1.2919,-1.2913,-1.2967,-1.2927,-1.2909,-1.2924,-1.2922,-1.2964,-1.2969,-1.2983,-1.3042,-1.3044,-1.3002,-1.3004,-1.3005,-1.3006,0,0,0,0,0,0,0,-1.2805,-1.2813,-1.2894,-1.2877,-1.2878,-1.2878,-1.2884,-1.2923,-1.2943,-1.291,-1.291,-1.2917,-1.2965,-1.298,-1.2985,-1.3045,-1.3001,-1.3005,-1.3007,-1.3008,-1.3149,-1.3151,0,0,0,0,0,0,-1.28,-1.281,-1.2893,-1.2896,-1.284,-1.2881,-1.2888,-1.2908,-1.2943,-1.2947,-1.2918,-1.2916,-1.2974,-1.298,-1.2987,-1.3047,-1.3005,-1.3009,-1.3011,-1.3148,-1.315,-1.3151,0,0,0,0,0,0,-1.2797,-1.2807,-1.289,-1.2853,-1.2864,-1.2885,-1.2907,-1.291,-1.2924,-1.2948,-1.2952,-1.2929,-1.2973,-1.2981,-1.3026,-1.3049,-1.301,-1.3014,-1.3146,-1.3148,-1.315,-1.3168,0,0,0,0,0,0,-1.2794,-1.2806,-1.2824,-1.2854,-1.2866,-1.2928,-1.2908,-1.2912,-1.2931,-1.2929,-1.296,-1.2964,-1.2973,-1.3021,-1.303,-1.3054,-1.3017,-1.3144,-1.3147,-1.315,-1.3166,-1.3171,-1.3175,0,0,0,0,0,-1.279,-1.2827,-1.2825,-1.2835,-1.2889,-1.2929,-1.2936,-1.2945,-1.2932,-1.2951,-1.2967,-1.2963,-1.3045,-1.3026,-1.3036,-1.3061,-1.3143,-1.3146,-1.315,-1.3163,-1.317,-1.3175,0,0,0,0,0,0,-1.2799,-1.283,-1.2829,-1.2876,-1.29,-1.2929,-1.2952,-1.2952,-1.298,-1.2978,-1.2988,-1.2995,-1.3041,-1.3055,-1.3033,-1.3111,-1.3092,-1.3098,-1.31,-1.3106,-1.311,-1.3106,-1.302,0,0,0,0,0,-1.2806,-1.2836,-1.2863,-1.2902,-1.2914,-1.2931,-1.2949,-1.2954,-1.298,-1.299,-1.3009,-1.3034,-1.3066,-1.3087,-1.3117,-1.3168,-1.3176,-1.3191,-1.3195,-1.3199,-1.3204,-1.3234,-1.3241,-1.3163,-1.3163,-1.3163,0,0,-1.2822,-1.2843,-1.2861,-1.2904,-1.2923,-1.2955,-1.294,-1.2973,-1.2998,-1.2995,-1.3039,-1.3054,-1.3083,-1.3132,-1.3154,-1.3145,-1.3228,-1.3204,-1.3207,-1.3209,-1.3238,-1.3245,-1.3252,-1.3165,-1.3165,-1.3164,0,0,-1.2867,-1.2885,-1.292,-1.294,-1.297,-1.2982,-1.299,-1.302,-1.303,-1.3074,-1.3073,-1.3103,-1.3157,-1.3178,-1.3196,-1.3252,-1.325,-1.3261,-1.3286,-1.3315,-1.3321,-1.3327,-1.3348,-1.3355,-1.3266,-1.3266,-1.3266,0,-1.2883,-1.293,-1.2939,-1.2973,-1.2993,-1.2993,-1.3029,-1.3049,-1.3087,-1.3101,-1.3091,-1.316,-1.3179,-1.3234,-1.3248,-1.3262,-1.3273,-1.3257,-1.332,-1.3325,-1.3331,-1.3351,-1.3358,-1.3267,-1.3267,-1.3267,-1.3267,0,-1.2948,-1.2981,-1.3006,-1.3043,-1.3066,-1.3101,-1.3117,-1.3139,-1.3143,-1.3156,-1.3202,-1.3226,-1.3262,-1.3275,-1.3279,-1.3331,-1.3325,-1.3317,-1.3299,-1.3339,-1.3358,-1.3366,-1.3269,-1.3269,-1.3268,-1.3268,0,0,-1.2999,-1.3042,-1.3051,-1.3069,-1.3102,-1.3128,-1.3165,-1.32,-1.3219,-1.3246,-1.3278,-1.3325,-1.3319,-1.3339,-1.3346,-1.3371,-1.3415,-1.336,-1.3361,-1.337,-1.3476,-1.3481,-1.349,-1.3414,-1.3416,-1.3417,-1.3473,0,-1.3048,-1.3111,-1.3121,-1.3178,-1.3209,-1.3211,-1.3243,-1.3268,-1.3282,-1.3311,-1.3327,-1.336,-1.3349,-1.3362,-1.3387,-1.3404,-1.3437,-1.3401,-1.3445,-1.3446,-1.3437,-1.35,-1.3505,-1.3557,-1.3481,-1.3482,-1.3483,0,-1.3112,-1.3141,-1.3201,-1.3232,-1.3245,-1.3274,-1.3308,-1.3336,-1.3365,-1.3374,-1.3398,-1.3402,-1.3441,-1.3422,-1.3477,-1.3452,-1.3471,-1.3483,-1.3485,-1.349,-1.3467,-1.3506,-1.3574,-1.3582,-1.3495,-1.3494,-1.3493,0,-1.3144,-1.3198,-1.3241,-1.3256,-1.3293,-1.3313,-1.333,-1.3358,-1.3379,-1.341,-1.3424,-1.3458,-1.3478,-1.3505,-1.3519,-1.3503,-1.3574,-1.3555,-1.3583,-1.3583,-1.3597,-1.3596,-1.3669,-1.3609,-1.3609,-1.3609,-1.3609,0,-1.3198,-1.3234,-1.3256,-1.3283,-1.3324,-1.3337,-1.3378,-1.3394,-1.3419,-1.345,-1.3454,-1.3483,-1.3499,-1.3531,-1.3543,-1.3587,-1.3596,-1.3605,-1.3607,-1.3604,-1.3603,-1.3617,-1.3614,-1.3611,-1.3611,-1.361,-1.361,0,-1.324,-1.3256,-1.3303,-1.3335,-1.3344,-1.3373,-1.3401,-1.3428,-1.3442,-1.3481,-1.3491,-1.3514,-1.3552,-1.3569,-1.3616,-1.3623,-1.3675,-1.3675,-1.3665,-1.3666,-1.3693,-1.3691,-1.3777,-1.379,-1.3722,-1.3722,-1.3723,0,-1.3273,-1.3301,-1.3336,-1.3357,-1.3374,-1.3407,-1.3429,-1.3443,-1.3466,-1.3503,-1.3525,-1.3563,-1.3594,-1.3655,-1.3677,-1.3713,-1.3714,-1.3742,-1.3719,-1.3716,-1.3715,-1.3714,-1.3717,-1.3746,-1.3747,-1.3747,-1.3748,0,-1.333,-1.3337,-1.3368,-1.3403,-1.3429,-1.3457,-1.3484,-1.3501,-1.352,-1.3546,-1.3585,-1.3609,-1.3657,-1.3696,-1.3734,-1.3752,-1.3754,-1.3755,-1.3763,-1.3761,-1.3754,-1.3759,-1.3676,-1.3753,-1.3752,-1.3752,-1.3751,-1.3751,-1.3369,-1.3395,-1.3424,-1.3459,-1.3482,-1.3508,-1.3534,-1.3553,-1.3585,-1.3625,-1.3632,-1.3674,-1.3704,-1.3756,-1.3776,-1.3809,-1.3803,-1.3815,-1.3818,-1.3821,-1.3823,-1.3749,-1.3816,-1.3816,-1.3816,-1.3816,-1.3816,0,-1.3427,-1.3446,-1.3479,-1.3517,-1.3545,-1.3544,-1.3575,-1.3599,-1.3636,-1.3664,-1.3695,-1.374,-1.3778,-1.3803,-1.3842,-1.3864,-1.3866,-1.3874,-1.3872,-1.3877,-1.3826,-1.3815,-1.3872,-1.3872,-1.3872,-1.3872,-1.3872,-1.3871,-1.3461,-1.3505,-1.3515,-1.3571,-1.359,-1.3631,-1.3649,-1.3674,-1.3696,-1.3747,-1.3778,-1.3794,-1.3822,-1.3863,-1.3898,-1.3905,-1.3919,-1.3927,-1.3934,-1.3886,-1.388,-1.3874,-1.3864,-1.393,-1.393,-1.3981,-1.3982,-1.3982]},{"header":{"parameterUnit":"m.s-1","parameterCategory":1,"la1":30.2991,"la2":30.254,"lo1":-89.0895,"lo2":-89.0444,"dy":0.0017,"dx":0.0017,"nx":28,"ny":28,"refTime":"2024-04-18T21:00:00:Z","depth":0,"parameterNumber":3,"parameterNumberName":"V-component_of_WINDS"},"data":[0,0,0,0,0,0,0,0,0,0,0,0,0,0,0,0,0,0,0,0,0,0,0,0,0,0,0,0,0,0,0,0,0,0,0,0,0,0,0,0,0,0,0,0,0,0,0,0,0,0,0,0,0,0,0,0,0,0,3.1053,3.1054,0,3.1123,3.1124,3.1124,3.1117,3.1116,3.1115,3.1114,3.1182,3.1185,3.1188,0,0,0,0,0,0,0,0,0,0,0,0,0,3.0911,3.0914,3.1053,3.1054,3.1055,3.1123,3.1124,3.1125,3.1118,3.1116,3.1115,3.1114,3.1181,3.1185,3.1188,0,0,0,0,0,0,0,0,0,0,0,0,0,3.0976,3.0915,3.1053,3.106,3.1061,3.1122,3.1124,3.1125,3.1118,3.1116,3.1115,3.1113,3.118,3.1184,3.1189,3.1247,0,0,3.1201,3.1203,0,0,0,0,0,0,0,0,3.0972,3.0981,3.1058,3.1059,3.1061,3.111,3.1098,3.1166,3.1118,3.1096,3.1114,3.1112,3.1159,3.1165,3.1182,3.125,3.1253,3.1202,3.1204,3.1206,3.1207,0,0,0,0,0,0,0,3.0968,3.0978,3.1081,3.1059,3.1061,3.1058,3.1066,3.1111,3.1136,3.1098,3.1098,3.1106,3.116,3.1178,3.1183,3.1254,3.1202,3.1205,3.1208,3.121,3.1373,3.1375,0,0,0,0,0,0,3.0962,3.0974,3.1078,3.1083,3.1012,3.1062,3.107,3.1096,3.1135,3.114,3.1108,3.1106,3.1171,3.1178,3.1186,3.1257,3.1206,3.121,3.1213,3.1372,3.1374,3.1376,0,0,0,0,0,0,3.0959,3.0972,3.1076,3.1029,3.1042,3.1066,3.1095,3.1098,3.1116,3.1143,3.1147,3.1121,3.117,3.118,3.1232,3.1259,3.1212,3.1216,3.1369,3.1372,3.1375,3.1399,0,0,0,0,0,0,3.0955,3.0971,3.0994,3.1029,3.1044,3.1122,3.1096,3.11,3.1123,3.1122,3.1157,3.1161,3.117,3.1226,3.1236,3.1264,3.1219,3.1367,3.1371,3.1374,3.1396,3.1402,3.1408,0,0,0,0,0,3.095,3.0997,3.0995,3.1008,3.1074,3.1123,3.1132,3.1142,3.1126,3.1149,3.1166,3.116,3.1254,3.1231,3.1243,3.1272,3.1365,3.137,3.1374,3.1393,3.1401,3.1407,0,0,0,0,0,0,3.0963,3.1002,3.1,3.106,3.1089,3.1122,3.1152,3.115,3.1183,3.118,3.119,3.1198,3.125,3.1266,3.124,3.133,3.1307,3.1314,3.1318,3.1326,3.1332,3.1327,3.1223,0,0,0,0,0,3.0973,3.1011,3.1042,3.1092,3.1107,3.1127,3.1149,3.1154,3.1184,3.1195,3.1216,3.1245,3.128,3.1304,3.1338,3.1398,3.1405,3.1424,3.143,3.1434,3.144,3.1473,3.1481,3.1389,3.1389,3.1389,0,0,3.0994,3.102,3.1043,3.1096,3.1118,3.1157,3.1137,3.1178,3.1207,3.1201,3.1253,3.1269,3.1301,3.1357,3.1383,3.1372,3.1467,3.144,3.1443,3.1446,3.1478,3.1486,3.1494,3.1392,3.1391,3.1391,0,0,3.1052,3.1075,3.1119,3.1143,3.1178,3.1191,3.1201,3.1235,3.1246,3.1298,3.1295,3.1328,3.139,3.1413,3.1432,3.1499,3.1494,3.1509,3.154,3.1572,3.1579,3.1585,3.1609,3.1618,3.1515,3.1515,3.1515,0,3.1073,3.1132,3.1142,3.1184,3.1207,3.1205,3.125,3.1271,3.1316,3.1331,3.1318,3.1396,3.1417,3.1479,3.1495,3.1511,3.1523,3.1506,3.1577,3.1584,3.159,3.1613,3.1622,3.1517,3.1516,3.1516,3.1516,0,3.1156,3.1197,3.1228,3.1272,3.1298,3.1341,3.1358,3.1383,3.1386,3.1399,3.1452,3.1477,3.1517,3.1532,3.1534,3.1594,3.1586,3.1575,3.1552,3.16,3.1622,3.1631,3.1519,3.1518,3.1518,3.1517,0,0,3.1225,3.1274,3.1285,3.1305,3.1344,3.1375,3.1417,3.1457,3.1478,3.1509,3.1544,3.1596,3.1587,3.1609,3.1614,3.1642,3.1693,3.1628,3.1629,3.1639,3.176,3.1768,3.1778,3.169,3.1692,3.1693,3.1757,0,3.1286,3.1363,3.1374,3.1441,3.1479,3.1477,3.1514,3.1541,3.1554,3.1587,3.1602,3.1639,3.1624,3.1637,3.1665,3.1681,3.1717,3.1676,3.1723,3.1724,3.1716,3.1789,3.1798,3.1858,3.1766,3.1767,3.1768,0,3.1369,3.1403,3.1475,3.1508,3.1524,3.1557,3.1594,3.1626,3.1656,3.1664,3.1689,3.1691,3.1734,3.1709,3.1768,3.174,3.1759,3.177,3.1773,3.1778,3.175,3.1797,3.1877,3.1886,3.1782,3.1781,3.178,0,3.1413,3.1476,3.1527,3.1544,3.1584,3.1607,3.1625,3.1653,3.1677,3.1709,3.1724,3.176,3.178,3.1807,3.1818,3.1799,3.1877,3.1853,3.1884,3.1884,3.1901,3.19,3.1986,3.1913,3.1913,3.1912,3.1912,0,3.1481,3.1525,3.1547,3.1578,3.1627,3.1638,3.1686,3.1702,3.1728,3.1761,3.1761,3.1793,3.1805,3.1838,3.1847,3.1895,3.1903,3.1911,3.1912,3.1911,3.191,3.1924,3.1921,3.1915,3.1914,3.1914,3.1913,0,3.1538,3.1555,3.161,3.1644,3.1653,3.1688,3.1716,3.1746,3.1759,3.1802,3.1812,3.1833,3.1872,3.1886,3.1933,3.1938,3.1994,3.1992,3.1984,3.1985,3.2016,3.2013,3.2114,3.2128,3.2045,3.2046,3.2047,0,3.1581,3.1615,3.1653,3.1676,3.1694,3.1732,3.1756,3.1767,3.1792,3.1829,3.1854,3.1893,3.1925,3.1987,3.2006,3.2042,3.2041,3.2074,3.2046,3.2044,3.2042,3.204,3.2044,3.2079,3.208,3.2081,3.2082,0,3.1656,3.1663,3.1698,3.1736,3.1765,3.1795,3.1824,3.1843,3.1858,3.1886,3.1927,3.1952,3.2,3.2039,3.2075,3.2092,3.209,3.209,3.2099,3.2099,3.2093,3.2097,3.1999,3.2088,3.2087,3.2087,3.2086,3.2086,3.1708,3.1738,3.1769,3.1808,3.1831,3.1859,3.1889,3.1906,3.194,3.1982,3.1986,3.2029,3.2058,3.2107,3.2126,3.2159,3.215,3.2163,3.2167,3.217,3.2173,3.2087,3.2166,3.2166,3.2165,3.2165,3.2165,0,3.1783,3.1803,3.1839,3.188,3.1911,3.1906,3.1938,3.1964,3.2003,3.203,3.2062,3.2108,3.2145,3.2167,3.2204,3.2227,3.2226,3.2236,3.2235,3.2239,3.2179,3.2167,3.2236,3.2236,3.2236,3.2236,3.2236,3.2236,3.1826,3.1877,3.1887,3.1949,3.1968,3.2012,3.203,3.2055,3.2077,3.2129,3.2161,3.2175,3.2199,3.2238,3.2272,3.2277,3.2291,3.2302,3.2306,3.225,3.2243,3.2236,3.2225,3.2305,3.2305,3.2363,3.2364,3.2364]}]]